Precipitable_Water
0.80 0.95 1.00 0.83 0.48 0.46 0.38 0.37 0.41 0.45 0.58 0.89 1.03 0.98 0.91 0.96 0.76 0.61 1.41 1.41 1.44 1.42 1.53 1.53 1.54 1.56 1.58 1.57 1.54 1.54 1.54 1.50 1.43 1.39 1.36 1.31 1.28 1.27 1.25 1.29 1.45 1.59 1.56 1.44 1.25 1.17 1.17 1.24 1.30
0.72 0.83 0.77 0.57 0.32 0.27 0.29 0.35 0.41 0.52 0.72 0.95 1.01 1.04 0.93 0.87 1.15 1.19 1.21 1.36 1.47 1.46 1.51 1.55 1.62 1.56 1.53 1.52 1.52 1.53 1.54 1.55 1.52 1.54 1.49 1.45 1.41 1.41 1.38 1.34 1.35 1.48 1.57 1.54 1.37 1.22 1.13 1.16 1.19
0.76 0.82 0.47 0.35 0.31 0.23 0.22 0.32 0.52 0.65 0.74 0.87 0.90 1.02 0.99 0.92 1.10 1.16 1.30 1.35 1.43 1.44 1.50 1.50 1.58 1.56 1.56 1.53 1.49 1.47 1.48 1.50 1.50 1.52 1.53 1.50 1.53 1.51 1.45 1.41 1.35 1.45 1.55 1.58 1.48 1.32 1.19 1.13 1.18
0.69 0.59 0.47 0.25 0.19 0.24 0.27 0.36 0.58 0.60 0.69 0.90 0.91 0.80 1.04 1.22 1.11 1.19 1.34 1.38 1.37 1.41 1.47 1.47 1.49 1.50 1.53 1.50 1.43 1.40 1.40 1.41 1.40 1.43 1.48 1.50 1.50 1.51 1.51 1.48 1.44 1.43 1.52 1.57 1.56 1.45 1.36 1.20 1.14
0.66 0.46 0.25 0.19 0.18 0.23 0.32 0.49 0.55 0.51 0.58 0.71 0.83 0.77 0.84 1.08 1.20 1.30 1.33 1.38 1.29 1.33 1.43 1.43 1.46 1.44 1.45 1.42 1.38 1.36 1.35 1.35 1.33 1.33 1.34 1.39 1.43 1.48 1.52 1.51 1.44 1.42 1.44 1.52 1.57 1.53 1.43 1.35 1.22
0.41 0.37 0.20 0.13 0.17 0.30 0.40 0.53 0.57 0.53 0.58 0.63 0.71 0.75 0.78 1.02 1.06 1.17 1.28 1.26 1.32 1.30 1.34 1.35 1.38 1.38 1.38 1.36 1.33 1.32 1.31 1.28 1.27 1.29 1.32 1.35 1.37 1.38 1.42 1.48 1.51 1.51 1.46 1.45 1.52 1.52 1.45 1.42 1.40
0.34 0.27 0.16 0.14 0.22 0.34 0.42 0.51 0.51 0.56 0.53 0.56 0.72 0.63 0.76 0.89 1.00 1.08 1.10 1.07 1.08 1.12 1.12 1.08 1.13 1.10 1.11 1.04 1.02 1.03 1.07 1.13 1.12 1.12 1.19 1.20 1.29 1.35 1.38 1.40 1.41 1.45 1.48 1.50 1.49 1.48 1.49 1.47 1.48
0.46 0.29 0.15 0.16 0.25 0.34 0.45 0.44 0.50 0.51 0.47 0.64 0.73 0.51 0.60 0.83 0.94 0.94 0.91 0.89 0.92 0.93 0.92 0.89 0.84 0.78 0.71 0.69 0.72 0.65 0.66 0.74 0.76 0.81 0.94 1.08 1.15 1.26 1.31 1.38 1.40 1.42 1.44 1.49 1.53 1.56 1.54 1.51 1.49
0.48 0.23 0.13 0.16 0.25 0.35 0.42 0.40 0.46 0.50 0.50 0.60 0.64 0.66 0.73 0.89 0.87 0.79 0.74 0.74 0.77 0.78 0.79 0.74 0.68 0.65 0.62 0.60 0.56 0.52 0.49 0.50 0.56 0.55 0.60 0.64 0.78 0.85 0.99 0.98 1.12 1.31 1.35 1.39 1.39 1.43 1.44 1.51 1.54
0.36 0.23 0.19 0.27 0.30 0.32 0.39 0.41 0.40 0.40 0.45 0.53 0.60 0.68 0.78 0.80 0.73 0.66 0.62 0.60 0.61 0.58 0.57 0.54 0.51 0.49 0.48 0.49 0.49 0.49 0.48 0.46 0.45 0.44 0.43 0.45 0.50 0.53 0.55 0.56 0.63 0.74 0.86 1.08 1.20 1.25 1.30 1.34 1.35
0.35 0.24 0.29 0.28 0.31 0.35 0.36 0.38 0.40 0.38 0.35 0.44 0.50 0.59 0.67 0.66 0.67 0.64 0.61 0.57 0.50 0.49 0.50 0.51 0.49 0.49 0.48 0.46 0.44 0.43 0.44 0.45 0.45 0.45 0.46 0.48 0.48 0.51 0.53 0.53 0.55 0.61 0.66 0.70 0.77 0.93 1.10 1.18 1.21
0.29 0.33 0.33 0.32 0.34 0.33 0.32 0.37 0.35 0.37 0.36 0.43 0.50 0.55 0.59 0.55 0.55 0.56 0.51 0.47 0.46 0.48 0.48 0.50 0.49 0.46 0.44 0.42 0.41 0.42 0.43 0.46 0.46 0.48 0.50 0.50 0.49 0.50 0.51 0.51 0.52 0.51 0.57 0.59 0.63 0.66 0.78 0.95 1.12
0.32 0.35 0.37 0.37 0.36 0.36 0.36 0.32 0.33 0.34 0.39 0.44 0.46 0.48 0.44 0.45 0.46 0.46 0.46 0.46 0.47 0.45 0.48 0.48 0.47 0.43 0.42 0.41 0.43 0.45 0.46 0.48 0.51 0.52 0.55 0.56 0.55 0.54 0.56 0.56 0.56 0.56 0.58 0.57 0.57 0.62 0.64 0.68 0.70
0.35 0.38 0.38 0.38 0.36 0.37 0.32 0.30 0.32 0.33 0.38 0.39 0.41 0.38 0.38 0.39 0.40 0.41 0.41 0.41 0.44 0.45 0.45 0.46 0.44 0.44 0.44 0.44 0.46 0.48 0.51 0.53 0.55 0.57 0.59 0.61 0.62 0.61 0.61 0.60 0.60 0.60 0.61 0.61 0.60 0.59 0.59 0.63 0.70
0.35 0.32 0.35 0.36 0.35 0.32 0.34 0.25 0.25 0.33 0.35 0.35 0.35 0.36 0.36 0.37 0.39 0.36 0.38 0.39 0.41 0.42 0.44 0.43 0.44 0.46 0.46 0.46 0.48 0.51 0.53 0.57 0.59 0.62 0.66 0.68 0.70 0.69 0.68 0.67 0.65 0.66 0.66 0.64 0.62 0.60 0.60 0.59 0.60
0.28 0.28 0.21 0.30 0.31 0.29 0.27 0.17 0.26 0.31 0.32 0.30 0.30 0.31 0.31 0.32 0.34 0.36 0.38 0.39 0.41 0.42 0.42 0.45 0.47 0.46 0.46 0.47 0.51 0.52 0.54 0.55 0.55 0.56 0.59 0.61 0.63 0.64 0.64 0.66 0.68 0.71 0.70 0.68 0.64 0.63 0.60 0.60 0.60
0.24 0.16 0.18 0.20 0.28 0.25 0.24 0.17 0.25 0.30 0.29 0.28 0.28 0.28 0.29 0.30 0.32 0.34 0.36 0.38 0.39 0.42 0.44 0.45 0.47 0.46 0.46 0.49 0.49 0.49 0.51 0.49 0.50 0.53 0.55 0.57 0.60 0.63 0.63 0.64 0.66 0.69 0.67 0.68 0.68 0.67 0.66 0.61 0.62
0.15 0.16 0.18 0.17 0.22 0.23 0.20 0.18 0.23 0.27 0.26 0.26 0.27 0.26 0.27 0.27 0.29 0.31 0.33 0.37 0.41 0.44 0.47 0.47 0.49 0.49 0.49 0.48 0.46 0.47 0.44 0.43 0.45 0.45 0.47 0.52 0.58 0.62 0.65 0.67 0.66 0.68 0.66 0.67 0.69 0.69 0.72 0.69 0.68
0.19 0.18 0.17 0.21 0.25 0.19 0.17 0.17 0.19 0.23 0.25 0.25 0.24 0.24 0.24 0.25 0.26 0.29 0.32 0.37 0.41 0.44 0.45 0.46 0.47 0.48 0.49 0.41 0.38 0.35 0.34 0.36 0.37 0.41 0.47 0.50 0.54 0.62 0.66 0.70 0.72 0.73 0.68 0.68 0.71 0.72 0.70 0.69 0.74
0.20 0.18 0.18 0.21 0.23 0.19 0.18 0.17 0.19 0.21 0.21 0.21 0.20 0.20 0.21 0.24 0.25 0.28 0.32 0.37 0.41 0.43 0.46 0.48 0.49 0.49 0.43 0.42 0.40 0.40 0.40 0.39 0.38 0.40 0.44 0.54 0.60 0.65 0.68 0.70 0.72 0.75 0.72 0.71 0.72 0.71 0.69 0.70 0.75
0.19 0.17 0.17 0.17 0.22 0.23 0.20 0.15 0.17 0.22 0.23 0.24 0.23 0.23 0.22 0.22 0.24 0.29 0.33 0.38 0.43 0.45 0.49 0.50 0.49 0.45 0.39 0.41 0.43 0.44 0.44 0.41 0.36 0.34 0.39 0.48 0.60 0.65 0.69 0.71 0.73 0.73 0.75 0.72 0.75 0.73 0.69 0.62 0.68
0.16 0.25 0.23 0.19 0.16 0.13 0.22 0.11 0.13 0.17 0.19 0.20 0.22 0.24 0.26 0.29 0.31 0.34 0.37 0.40 0.44 0.47 0.52 0.47 0.50 0.38 0.39 0.43 0.42 0.39 0.38 0.35 0.37 0.35 0.38 0.45 0.58 0.66 0.70 0.72 0.74 0.74 0.75 0.75 0.76 0.79 0.76 0.75 0.66
0.21 0.26 0.23 0.21 0.18 0.17 0.17 0.13 0.13 0.19 0.17 0.20 0.23 0.25 0.30 0.32 0.32 0.32 0.35 0.39 0.44 0.46 0.45 0.50 0.41 0.41 0.41 0.44 0.46 0.44 0.38 0.40 0.43 0.40 0.35 0.42 0.49 0.60 0.69 0.72 0.73 0.73 0.75 0.77 0.78 0.79 0.78 0.76 0.67
0.31 0.26 0.25 0.24 0.18 0.11 0.16 0.15 0.12 0.17 0.20 0.23 0.28 0.30 0.30 0.30 0.32 0.36 0.39 0.41 0.42 0.49 0.45 0.43 0.44 0.42 0.45 0.47 0.45 0.43 0.40 0.40 0.41 0.39 0.35 0.35 0.40 0.51 0.63 0.71 0.73 0.74 0.73 0.74 0.74 0.75 0.72 0.70 0.68
0.25 0.19 0.12 0.11 0.10 0.09 0.20 0.17 0.15 0.22 0.25 0.26 0.25 0.27 0.31 0.34 0.35 0.38 0.40 0.43 0.42 0.41 0.44 0.45 0.43 0.42 0.45 0.44 0.44 0.44 0.41 0.42 0.41 0.42 0.38 0.35 0.33 0.43 0.50 0.55 0.64 0.70 0.71 0.71 0.70 0.68 0.68 0.67 0.64
0.19 0.18 0.11 0.07 0.09 0.13 0.22 0.13 0.15 0.27 0.33 0.34 0.32 0.33 0.37 0.38 0.39 0.40 0.40 0.41 0.45 0.47 0.49 0.50 0.46 0.42 0.42 0.43 0.43 0.44 0.44 0.42 0.42 0.44 0.42 0.40 0.36 0.37 0.46 0.48 0.58 0.65 0.65 0.67 0.67 0.67 0.68 0.67 0.66
0.19 0.15 0.23 0.15 0.18 0.13 0.15 0.18 0.23 0.30 0.29 0.31 0.30 0.32 0.34 0.37 0.39 0.44 0.44 0.46 0.48 0.50 0.51 0.49 0.47 0.43 0.43 0.43 0.42 0.42 0.43 0.41 0.40 0.44 0.46 0.43 0.44 0.38 0.42 0.44 0.50 0.62 0.64 0.64 0.63 0.63 0.62 0.63 0.63
0.27 0.29 0.17 0.18 0.11 0.09 0.13 0.14 0.13 0.20 0.22 0.26 0.28 0.30 0.33 0.37 0.41 0.43 0.44 0.45 0.47 0.49 0.50 0.48 0.45 0.40 0.40 0.41 0.41 0.42 0.43 0.43 0.43 0.44 0.44 0.44 0.45 0.44 0.36 0.36 0.40 0.51 0.56 0.58 0.58 0.57 0.59 0.56 0.56
0.24 0.22 0.24 0.24 0.19 0.10 0.08 0.09 0.26 0.22 0.24 0.26 0.31 0.35 0.37 0.37 0.38 0.39 0.41 0.40 0.38 0.38 0.38 0.35 0.35 0.35 0.36 0.38 0.39 0.41 0.42 0.44 0.44 0.43 0.45 0.45 0.44 0.44 0.41 0.34 0.32 0.41 0.49 0.52 0.53 0.54 0.55 0.54 0.51
0.27 0.20 0.21 0.13 0.11 0.16 0.13 0.09 0.21 0.29 0.32 0.31 0.32 0.31 0.33 0.35 0.38 0.37 0.36 0.33 0.32 0.30 0.31 0.31 0.33 0.33 0.34 0.35 0.37 0.38 0.43 0.43 0.44 0.45 0.45 0.46 0.44 0.44 0.42 0.38 0.31 0.30 0.41 0.47 0.48 0.48 0.50 0.50 0.46
Wind_Speed
28 27 25 22 20 18 19 19 17 15 13 10 7 9 7 5 5 5 6 6 6 5 5 4 3 2 2 2 2 3 3 4 4 4 5 5 5 5 5 5 6 7 7 7 7 7 7 7 7
28 26 24 22 19 18 19 19 16 17 16 13 9 9 6 6 6 6 6 7 6 5 4 3 2 2 2 3 4 4 5 5 6 6 6 6 7 7 7 7 7 7 6 6 7 7 8 8 8
28 25 23 21 20 19 17 18 16 16 17 14 12 9 9 8 7 7 7 7 6 5 4 3 2 2 3 4 5 6 6 7 8 8 8 9 8 9 9 9 8 8 7 7 7 8 8 8 8
28 24 21 20 20 19 18 18 17 16 15 14 14 10 9 9 8 8 8 7 5 4 4 3 3 3 4 5 6 7 8 9 9 10 10 11 11 11 11 11 10 10 10 10 10 10 10 10 10
27 24 20 19 19 18 17 18 18 17 15 15 15 13 11 9 10 9 8 7 5 4 3 3 3 4 5 7 8 9 9 10 11 12 12 12 13 13 13 13 13 13 13 13 14 14 14 14 14
25 24 21 20 19 17 16 16 16 15 15 16 14 13 12 12 11 10 8 6 5 4 3 3 5 6 7 9 10 11 11 12 13 13 14 15 15 15 15 16 16 16 16 16 17 17 17 17 17
26 23 22 20 20 17 17 15 15 14 15 14 16 13 13 13 12 11 8 6 5 4 4 5 7 8 9 10 11 12 13 13 14 15 16 16 17 17 18 18 19 19 19 20 20 20 20 20 20
25 22 21 21 20 18 17 15 15 14 14 16 15 14 14 15 13 11 8 7 6 6 6 8 9 10 11 12 13 13 14 15 16 17 17 18 19 19 20 20 21 21 22 22 22 23 23 23 24
25 20 21 21 21 19 18 17 15 14 15 15 13 14 13 15 12 10 9 8 7 8 9 10 11 12 13 13 14 15 16 17 17 18 18 19 19 20 20 21 21 22 23 23 23 24 24 25 26
24 21 21 20 20 18 18 17 16 15 15 13 13 11 14 14 12 11 10 9 9 10 11 12 13 14 15 15 16 16 17 17 18 18 19 19 20 20 21 21 22 22 23 24 26 27 27 28 28
24 21 20 18 20 21 18 17 16 17 15 16 16 14 13 13 12 12 11 11 11 12 13 14 15 15 16 17 17 18 18 19 19 20 21 22 22 23 24 24 25 25 26 26 26 27 28 28 29
23 19 19 17 18 19 17 17 16 15 15 15 16 15 13 13 13 13 12 12 13 14 15 16 16 17 17 18 18 19 20 21 22 23 24 24 25 25 26 26 27 27 28 29 29 29 29 30 31
23 21 18 17 16 17 17 16 17 16 14 15 15 14 14 13 14 14 14 15 15 16 17 17 18 18 18 19 20 21 22 23 24 25 26 26 26 27 27 28 29 30 31 32 32 32 32 33 33
24 21 19 16 16 15 16 16 17 17 16 14 15 15 15 15 15 15 16 16 17 18 18 18 19 19 19 20 22 23 24 25 26 26 27 27 28 28 29 30 31 32 33 34 34 34 35 35 36
24 20 18 16 15 15 15 16 17 17 17 16 16 16 16 17 17 18 18 18 19 19 19 19 19 20 21 23 24 24 25 25 25 26 26 27 28 29 29 30 31 32 33 34 35 36 36 36 36
21 18 18 17 15 15 15 16 16 17 17 18 17 17 18 19 20 20 20 20 20 20 20 20 20 22 23 24 24 25 24 24 25 26 27 28 28 29 29 29 30 31 32 32 33 34 35 36 36
19 19 18 16 15 15 15 15 14 17 18 18 18 19 20 20 21 22 21 20 20 20 20 20 21 23 23 24 24 23 24 25 26 27 28 28 29 30 30 30 31 31 30 30 31 31 32 33 34
22 18 17 17 15 15 16 17 16 17 18 19 19 20 20 21 22 22 21 20 20 20 20 20 21 22 23 23 23 24 24 25 25 27 28 29 29 30 30 30 30 30 29 29 29 28 27 28 28
20 18 16 16 15 14 16 17 19 20 19 21 22 22 21 21 21 21 21 20 20 20 20 21 23 23 23 23 22 23 23 25 26 27 28 28 29 29 28 28 28 28 27 26 25 24 23 22 21
17 16 13 14 14 14 14 18 19 19 19 21 22 22 22 21 20 20 20 21 21 21 22 22 23 22 21 21 22 23 24 25 27 27 28 28 28 28 28 27 26 25 24 23 21 19 19 18 18
13 14 14 13 12 12 13 15 14 15 15 16 17 19 19 21 22 21 21 21 21 22 22 23 21 20 21 21 22 24 25 25 26 27 27 26 27 27 26 25 23 22 20 20 19 18 18 18 19
12 12 12 11 11 13 10 13 13 13 15 13 15 16 16 17 17 18 19 20 21 21 22 20 20 20 21 21 22 23 24 25 26 26 26 25 25 24 23 22 20 20 19 18 17 16 17 17 17
12 11 10 10 10 10 11 10 15 13 12 14 15 15 15 16 17 18 19 20 21 21 20 20 20 20 21 21 22 24 25 26 26 26 25 23 21 21 20 19 18 18 17 16 16 15 15 13 13
11 9 7 9 10 10 13 11 14 12 12 15 16 16 17 17 18 19 19 19 20 20 20 20 21 21 22 22 23 25 26 27 26 26 24 22 20 19 18 16 16 15 15 14 13 12 12 12 12
9 8 8 9 10 13 12 12 17 16 17 16 18 19 19 19 20 20 20 20 19 19 20 21 21 22 22 23 25 26 26 26 27 28 25 22 19 17 16 14 14 13 11 11 11 11 11 12 13
10 10 10 12 11 13 13 15 15 15 17 17 18 18 19 19 19 20 20 20 20 20 20 21 21 22 24 25 26 25 25 26 27 26 23 19 18 17 15 15 14 12 11 11 11 11 12 13 14
10 10 11 9 12 12 14 17 17 15 14 16 16 17 19 19 19 18 18 19 20 21 22 22 23 24 25 26 24 24 24 23 22 19 16 16 17 17 16 16 15 14 12 12 12 13 14 14 15
10 11 9 11 11 14 14 15 15 15 16 16 15 16 16 16 16 16 16 18 19 21 22 23 25 25 25 23 23 23 22 21 20 17 16 17 18 18 17 17 16 15 14 14 14 14 15 16 16
11 12 12 12 12 13 14 16 15 15 15 15 15 15 16 16 17 17 18 19 20 21 22 21 21 21 22 22 22 22 22 21 20 19 18 18 18 18 19 18 17 16 16 16 16 17 17 17 17
14 15 14 13 15 15 14 18 17 16 13 13 15 17 19 19 19 18 19 18 18 18 18 18 19 20 21 21 21 21 22 21 21 21 20 20 20 19 18 18 18 18 18 19 19 19 19 19 19
Wind_Direction
215 216 217 220 223 228 231 234 232 223 221 230 212 196 194 196 201 197 183 174 166 166 171 181 190 210 237 263 287 297 307 314 320 326 328 327 325 321 321 320 317 308 282 289 294 297 295 291 291
209 209 211 216 220 222 230 226 228 222 206 203 199 204 198 190 192 178 180 180 179 175 181 188 200 234 255 273 285 290 294 298 300 303 309 313 310 311 307 309 310 310 290 289 295 298 297 294 288
203 204 206 210 216 217 222 218 211 208 207 213 208 201 201 197 200 193 181 181 179 184 186 193 218 255 271 281 288 292 293 293 293 294 297 299 299 300 302 301 301 302 294 287 293 297 299 295 292
199 201 208 210 216 221 219 215 205 203 207 209 196 202 205 208 200 187 178 181 181 187 198 221 254 270 280 288 292 293 294 294 293 292 291 292 292 292 293 293 293 292 288 284 286 288 292 292 289
197 201 206 210 214 218 219 207 206 208 208 204 205 203 202 197 185 178 176 180 181 193 214 251 268 283 288 293 295 294 295 295 294 293 291 290 290 289 288 287 287 286 285 283 282 283 284 286 286
198 201 205 207 210 210 202 203 206 209 205 201 198 196 198 191 184 182 182 187 198 213 241 268 282 291 293 295 295 294 294 294 294 293 292 291 290 288 287 285 284 283 283 283 281 281 281 282 283
197 200 202 201 204 199 199 201 202 199 195 196 192 196 197 196 191 191 197 205 218 235 263 282 290 295 296 297 296 297 296 294 295 294 292 291 289 288 287 285 283 282 282 281 281 280 279 279 280
196 198 196 201 200 200 197 195 195 194 193 190 191 194 199 197 193 198 206 217 235 255 274 287 293 295 297 296 295 297 296 294 295 295 294 292 290 288 287 286 284 282 281 280 280 279 278 278 278
194 196 198 198 196 197 194 190 194 192 185 190 198 196 200 190 195 203 216 233 249 267 280 289 293 295 296 297 297 297 297 296 295 296 296 295 292 290 288 288 287 285 283 281 280 279 279 278 278
191 194 199 199 200 196 192 190 190 188 188 190 192 191 184 193 205 214 228 241 257 271 281 289 293 295 296 297 297 297 298 298 297 298 297 295 294 292 291 289 289 287 286 283 282 281 280 279 278
191 194 196 199 200 195 193 192 194 186 192 197 197 196 199 209 217 227 240 252 262 274 283 289 293 295 296 296 297 297 297 297 297 298 298 296 294 292 290 289 288 286 286 285 284 282 280 279 279
186 191 192 194 193 192 194 192 193 196 196 200 200 203 212 219 228 237 248 258 267 277 284 289 292 294 295 297 297 297 297 297 297 297 296 295 294 292 291 289 288 286 285 284 284 283 282 281 280
183 188 185 185 183 186 191 195 197 199 204 203 204 215 221 229 238 248 256 264 271 278 284 288 290 293 294 296 297 298 298 298 297 296 295 295 294 292 291 289 288 287 285 284 283 282 281 281 280
183 182 184 182 186 189 194 199 202 206 206 207 213 223 231 239 246 256 262 268 273 279 282 286 288 291 294 296 297 298 298 297 297 296 296 296 294 293 292 290 289 287 286 285 283 282 281 280 280
178 179 184 188 193 196 203 208 210 210 214 218 226 234 241 248 255 260 265 271 275 279 281 283 286 289 293 296 297 297 297 298 298 298 298 297 297 295 294 292 291 290 289 287 285 283 282 281 280
183 185 186 197 199 202 201 217 219 215 218 228 236 244 250 256 260 265 268 272 275 277 279 282 285 289 293 295 296 297 298 299 299 299 298 298 297 297 296 294 294 293 292 291 288 286 284 283 282
190 189 191 198 200 208 208 220 223 221 228 238 245 251 256 262 265 267 269 271 273 276 279 281 285 290 293 295 296 297 298 299 299 298 298 298 298 297 296 295 295 295 294 294 292 290 287 286 284
191 189 195 199 209 213 219 229 232 233 238 247 253 258 262 264 266 268 269 270 272 275 279 282 287 290 292 294 294 296 298 299 301 301 301 301 300 300 297 296 296 295 295 294 295 294 293 290 287
186 190 194 206 214 219 226 237 242 246 250 256 258 260 264 266 270 269 268 268 272 276 279 282 287 288 290 292 294 296 298 301 303 304 303 303 302 301 300 298 298 297 295 295 295 295 295 295 295
185 186 201 212 220 224 238 249 248 248 252 255 260 262 263 267 270 271 268 267 270 274 278 283 286 285 288 291 294 297 300 302 304 305 305 305 305 304 302 300 299 298 296 296 296 295 295 295 298
189 189 204 214 229 232 253 255 254 252 255 263 263 263 265 265 268 270 268 267 268 272 277 282 281 283 287 291 295 298 301 303 305 306 307 307 307 306 303 300 298 297 298 296 295 293 295 296 298
192 208 211 222 227 234 250 250 256 258 265 270 275 271 270 272 272 272 269 267 268 272 278 277 279 283 287 291 295 299 300 303 305 306 307 307 309 310 307 303 298 297 297 297 296 295 296 297 299
201 209 219 229 234 245 258 252 256 263 265 272 279 278 269 270 272 272 270 270 272 273 273 275 278 282 286 292 296 300 301 302 303 305 305 306 309 312 311 307 303 297 297 295 294 296 298 300 302
203 213 231 237 242 251 254 246 264 256 261 272 275 276 272 273 275 274 274 274 272 272 273 275 277 281 286 291 296 300 301 301 300 300 300 299 303 309 311 312 310 303 298 296 296 297 298 301 304
216 223 246 256 255 245 256 261 257 263 267 271 276 275 273 274 275 276 275 274 273 273 274 276 278 282 286 291 296 299 301 301 299 296 292 291 294 302 306 313 318 310 303 299 298 299 300 302 306
225 226 230 238 245 255 263 257 262 264 277 279 277 274 274 274 276 275 273 272 272 274 276 276 278 283 287 291 295 297 301 305 304 298 286 281 286 295 296 302 311 310 304 301 300 299 302 305 308
232 240 240 244 260 265 260 269 273 269 274 283 283 276 279 277 276 276 274 273 274 276 276 277 280 285 289 291 293 296 301 306 308 305 290 282 286 291 290 292 298 301 299 300 299 300 301 304 305
238 233 249 259 254 262 268 267 261 270 274 278 282 283 281 276 275 276 278 278 278 279 281 283 284 286 290 290 293 294 297 302 302 299 292 287 286 287 288 286 288 291 292 294 296 298 300 301 302
241 248 251 251 251 255 268 269 258 262 272 279 281 284 283 279 277 278 282 284 285 284 284 286 287 289 292 291 294 292 295 296 296 293 291 287 287 286 285 282 282 284 287 289 292 295 297 299 300
245 247 246 252 258 260 262 270 265 263 261 275 285 285 283 279 276 278 282 285 288 288 288 289 293 295 295 294 295 292 295 294 293 291 288 286 286 285 282 278 278 280 283 285 287 290 292 294 296